When you browse on this site, cookies collect data to enhance your experience and personalize the content and advertising you see.
Visit our Privacy Policy to learn more. By continuing to use the site, you agree to this use of cookies and data.
  • In Sweden
  • List of Countries
  • For 7 days
  • Water Temperature
  • Satellite Maps
  • Weather Map
  • Weather Widgets
  • user-avatar
    Login

    Hourly Weather Frankfurt am Mein

    Today, 20 January, Sunday

    Time Temperature Precipitation Wind Pressure Humidity
    00:00 -5°C° 0 mm 2 mps 719 mmHg 66%
    01:00 -3°C° 0 mm 1 mps 719 mmHg 67%
    02:00 -4°C° 0 mm 1 mps 719 mmHg 69%
    03:00 -4°C° 0 mm 1 mps 719 mmHg 70%
    04:00 -4°C° 0 mm 1 mps 718 mmHg 71%
    05:00 -4°C° 0 mm 1 mps 718 mmHg 72%
    06:00 -4°C° 0 mm 1 mps 719 mmHg 73%
    07:00 -7°C° 0 mm 2 mps 719 mmHg 72%
    08:00 -7°C° 0 mm 2 mps 719 mmHg 70%
    09:00 -6°C° 0 mm 2 mps 719 mmHg 68%
    10:00 -6°C° 0 mm 2 mps 720 mmHg 66%
    11:00 -5°C° 0 mm 2 mps 720 mmHg 63%
    12:00 -4°C° 0 mm 2 mps 720 mmHg 59%
    13:00 -4°C° 0 mm 2 mps 721 mmHg 58%
    14:00 -4°C° 0 mm 2 mps 721 mmHg 59%
    15:00 -4°C° 0 mm 2 mps 721 mmHg 60%
    16:00 -4°C° 0 mm 2 mps 721 mmHg 60%
    17:00 -4°C° 0 mm 2 mps 721 mmHg 64%
    18:00 -5°C° 0 mm 2 mps 722 mmHg 67%
    19:00 -4°C° 0 mm 1 mps 722 mmHg 70%
    20:00 -4°C° 0 mm 1 mps 722 mmHg 70%
    21:00 -4°C° 0 mm 1 mps 723 mmHg 70%
    22:00 -4°C° 0 mm 1 mps 723 mmHg 70%
    23:00 -4°C° 0 mm 1 mps 723 mmHg 71%

    Tomorrow, 21 January, Monday

    Time Temperature Precipitation Wind Pressure Humidity
    00:00 -4°C° 0 mm 1 mps 723 mmHg 71%
    01:00 -4°C° 0 mm 1 mps 724 mmHg 71%
    02:00 -6°C° 0 mm 1 mps 724 mmHg 72%
    03:00 -6°C° 0 mm 1 mps 724 mmHg 73%
    04:00 -6°C° 0 mm 1 mps 724 mmHg 73%
    05:00 -6°C° 0 mm 1 mps 724 mmHg 74%
    06:00 -6°C° 0 mm 1 mps 724 mmHg 75%
    07:00 -6°C° 0 mm 1 mps 724 mmHg 75%
    08:00 -6°C° 0 mm 1 mps 724 mmHg 73%
    09:00 -4°C° 0 mm 1 mps 725 mmHg 71%
    10:00 -5°C° 0 mm 0 mps 725 mmHg 68%
    11:00 -4°C° 0 mm 0 mps 725 mmHg 64%
    12:00 -3°C° 0 mm 0 mps 725 mmHg 60%
    13:00 -2°C° 0 mm 0 mps 724 mmHg 56%
    14:00 -2°C° 0 mm 0 mps 724 mmHg 56%
    15:00 -2°C° 0 mm 0 mps 724 mmHg 57%
    16:00 -2°C° 0 mm 0 mps 723 mmHg 58%
    17:00 -3°C° 0 mm 0 mps 723 mmHg 61%
    18:00 -4°C° 0 mm 0 mps 723 mmHg 64%
    19:00 -4°C° 0 mm 0 mps 723 mmHg 67%
    20:00 -3°C° 0 mm 1 mps 722 mmHg 68%
    21:00 -3°C° 0 mm 1 mps 722 mmHg 68%
    22:00 -4°C° 0 mm 1 mps 722 mmHg 69%
    23:00 -4°C° 0 mm 1 mps 721 mmHg 69%

    Day after tomorrow, 22 January, Tuesday

    Time Temperature Precipitation Wind Pressure Humidity
    00:00 -4°C° 0 mm 1 mps 721 mmHg 70%
    01:00 -4°C° 0 mm 1 mps 720 mmHg 70%
    02:00 -4°C° 0 mm 1 mps 720 mmHg 71%
    03:00 -4°C° 0 mm 1 mps 719 mmHg 72%
    04:00 -4°C° 0 mm 1 mps 718 mmHg 72%
    05:00 -7°C° 0 mm 2 mps 718 mmHg 72%
    06:00 -7°C° 0 mm 2 mps 717 mmHg 73%
    07:00 -7°C° 0 mm 2 mps 717 mmHg 73%
    08:00 -6°C° 0 mm 2 mps 716 mmHg 70%
    09:00 -6°C° 0 mm 2 mps 716 mmHg 68%
    10:00 -6°C° 0 mm 3 mps 715 mmHg 65%
    11:00 -6°C° 0 mm 3 mps 714 mmHg 63%
    12:00 -5°C° 0 mm 3 mps 714 mmHg 61%
    13:00 -4°C° 0 mm 4 mps 713 mmHg 58%
    14:00 -4°C° 0 mm 3 mps 712 mmHg 59%
    15:00 -4°C° 0 mm 3 mps 712 mmHg 60%
    16:00 -3°C° 0 mm 2 mps 711 mmHg 60%
    17:00 -3°C° 0 mm 2 mps 710 mmHg 63%
    18:00 -4°C° 0 mm 2 mps 710 mmHg 65%
    19:00 -4°C° 0 mm 2 mps 710 mmHg 67%
    20:00 -2°C° 0 mm 1 mps 709 mmHg 68%
    21:00 -2°C° 0 mm 1 mps 709 mmHg 70%
    22:00 -2°C° 0 mm 1 mps 709 mmHg 72%
    23:00 -2°C° 0.1 mm 1 mps 709 mmHg 74%

    23 January, Wednesday

    Time Temperature Precipitation Wind Pressure Humidity
    00:00 -2°C° 0.1 mm 1 mps 708 mmHg 77%
    01:00 -2°C° 0.1 mm 1 mps 708 mmHg 80%
    02:00 -3°C° 0.1 mm 1 mps 708 mmHg 82%
    03:00 -3°C° 0.1 mm 1 mps 708 mmHg 84%
    04:00 -3°C° 0.1 mm 1 mps 708 mmHg 86%
    05:00 -3°C° 0.1 mm 1 mps 708 mmHg 87%
    06:00 -3°C° 0.1 mm 1 mps 708 mmHg 87%
    07:00 -3°C° 0.1 mm 1 mps 708 mmHg 88%
    08:00 -3°C° 0 mm 1 mps 708 mmHg 86%
    09:00 -3°C° 0 mm 0 mps 709 mmHg 83%
    10:00 -3°C° 0 mm 0 mps 709 mmHg 81%
    11:00 -1°C° 0 mm 1 mps 709 mmHg 77%
    12:00 -1°C° 0 mm 1 mps 710 mmHg 73%
    13:00 0°C° 0 mm 1 mps 710 mmHg 69%
    14:00 0°C° 0 mm 1 mps 710 mmHg 70%
    15:00 0°C° 0 mm 1 mps 710 mmHg 72%
    16:00 0°C° 0 mm 1 mps 711 mmHg 73%
    17:00 -1°C° 0 mm 1 mps 711 mmHg 77%
    18:00 -2°C° 0 mm 1 mps 712 mmHg 81%
    19:00 -2°C° 0 mm 1 mps 712 mmHg 85%
    20:00 -3°C° 0 mm 1 mps 713 mmHg 86%
    21:00 -3°C° 0 mm 1 mps 713 mmHg 87%
    22:00 -3°C° 0 mm 1 mps 714 mmHg 88%
    23:00 -3°C° 0 mm 1 mps 714 mmHg 89%

    24 January, Thursday

    Time Temperature Precipitation Wind Pressure Humidity
    00:00 -3°C° 0 mm 1 mps 714 mmHg 89%
    01:00 -3°C° 0 mm 1 mps 715 mmHg 89%
    02:00 -3°C° 0 mm 1 mps 715 mmHg 90%
    03:00 -4°C° 0 mm 1 mps 715 mmHg 91%
    04:00 -4°C° 0 mm 1 mps 715 mmHg 91%
    05:00 -4°C° 0 mm 1 mps 716 mmHg 92%
    06:00 -4°C° 0 mm 1 mps 716 mmHg 93%
    07:00 -4°C° 0 mm 1 mps 717 mmHg 93%
    08:00 -3°C° 0 mm 1 mps 717 mmHg 91%
    09:00 -3°C° 0 mm 1 mps 718 mmHg 90%
    10:00 -2°C° 0 mm 1 mps 718 mmHg 88%
    11:00 -2°C° 0 mm 1 mps 718 mmHg 83%
    12:00 -1°C° 0 mm 1 mps 719 mmHg 78%
    13:00 0°C° 0 mm 1 mps 719 mmHg 73%
    14:00 0°C° 0 mm 1 mps 719 mmHg 74%
    15:00 -2°C° 0 mm 2 mps 719 mmHg 75%
    16:00 -2°C° 0 mm 2 mps 719 mmHg 76%
    17:00 -1°C° 0 mm 1 mps 719 mmHg 78%
    18:00 -1°C° 0 mm 1 mps 719 mmHg 80%
    19:00 -2°C° 0 mm 1 mps 720 mmHg 83%
    20:00 -2°C° 0 mm 1 mps 720 mmHg 85%
    21:00 -3°C° 0 mm 1 mps 720 mmHg 88%
    22:00 -3°C° 0 mm 1 mps 720 mmHg 90%
    23:00 -3°C° 0 mm 1 mps 720 mmHg 91%

    25 January, Friday

    Time Temperature Precipitation Wind Pressure Humidity
    00:00 -3°C° 0 mm 1 mps 720 mmHg 91%
    01:00 -3°C° 0 mm 1 mps 720 mmHg 91%
    02:00 -3°C° 0 mm 1 mps 720 mmHg 92%
    03:00 -3°C° 0 mm 1 mps 720 mmHg 92%
    04:00 -3°C° 0 mm 1 mps 720 mmHg 92%
    05:00 -3°C° 0 mm 1 mps 720 mmHg 92%
    06:00 -3°C° 0 mm 1 mps 720 mmHg 92%
    07:00 -2°C° 0 mm 1 mps 720 mmHg 93%
    08:00 -2°C° 0 mm 1 mps 720 mmHg 91%
    09:00 -4°C° 0 mm 2 mps 720 mmHg 89%
    10:00 -3°C° 0 mm 2 mps 721 mmHg 87%
    11:00 -3°C° 0 mm 2 mps 721 mmHg 85%
    12:00 -2°C° 0 mm 2 mps 721 mmHg 83%
    13:00 -2°C° 0 mm 2 mps 721 mmHg 82%
    14:00 -2°C° 0 mm 2 mps 720 mmHg 83%
    15:00 -2°C° 0 mm 2 mps 720 mmHg 84%
    16:00 -2°C° 0 mm 2 mps 720 mmHg 85%
    17:00 -2°C° 0 mm 2 mps 720 mmHg 87%
    18:00 -3°C° 0 mm 2 mps 720 mmHg 90%
    19:00 -1°C° 0 mm 1 mps 720 mmHg 92%
    20:00 -1°C° 0 mm 1 mps 720 mmHg 93%
    21:00 -1°C° 0 mm 1 mps 720 mmHg 93%
    22:00 -1°C° 0 mm 1 mps 720 mmHg 94%
    23:00 -1°C° 0 mm 1 mps 720 mmHg 94%
    Show more